Location: Maiden
(35.5760°N, 81.2120°W)
Time: 02:18:05
(UTC-04:00)

A-11 Canister half - Pass Details

Date: 08 August 2020
Orbit: 1527 x 1682 km, 47.3° (Epoch: 25 September)

Event Time Altitude Azimuth Distance (km) Brightness Sun altitude
Rises 19:41:11 0° 304° (WNW) 4,918 13.3 7.0°
Reaches altitude 10° 19:44:22 10° 304° (NW) 3,916 12.8 6.3°
Maximum altitude 19:54:27 89° 34° (NE) 1,631 9.3 4.4°
Drops below altitude 10° 20:04:09 10° 126° (SE) 3,786 10.5 2.5°
Sets 20:07:11 0° 127° (SE) 4,749 11.0 1.9°
